Location: Hamayl? Da??
(36.7028°N, 30.1716°E)
Time: 07:07:10
(UTC+00:00)

Cosmos-2242 - Pass Details

Date: 04 August 2024
Orbit: 578 x 601 km, 82.5° (Epoch: 10 September)

Event Time Altitude Azimuth Distance (km) Brightness Sun altitude
Rises 19:23:01 0° 352° (N) 2,800 7.3 -24.1°
Reaches altitude 10° 19:25:13 10° 352° (N) 1,899 6.3 -24.4°
Enters shadow 19:28:58 71° 344° (NNW) 617 3.1 -24.9°
